Home > Weather > Nantes > Past weeks

Flag for France Past Weather in Nantes, Pays de la Loire, France — Yesterday and Last 2 Weeks

Now
68 °F

Passing clouds.


Feels Like: 68 °F
Forecast: 64 / 90 °F
Wind: 6 mph from Northeast

Location: Nantes Airport

Current Time: Aug 26, 2016 at 5:35:52 AM

Latest Report: Aug 26, 2016 at 5:00 AM


Visibility: N/A

Pressure: 29.95 "Hg

Humidity: 78%

Dew Point: 61 °F

Location of NantesLocation

Past Weather in Nantes — Graph

°F

Nantes Temperature Yesterday

Maximum temperature yesterday: 97 °F (at 5:00 PM)
Minimum temperature yesterday: 66 °F (at 2:00 AM)
Average temperature yesterday: 78 °F

High & Low Weather Summary for the Past Weeks

 TemperatureHumidityPressure
High97 °F (Aug 23, 3:30 PM)100% (Aug 12, 1:00 AM)30.36 "Hg (Aug 12, 1:00 AM)
Low50 °F (Aug 11, 4:00 AM)22% (Aug 23, 3:30 PM)29.77 "Hg (Aug 19, 10:00 AM)
Average71 °F65%30.07 "Hg
* Reported Aug 11 4:00 AM — Aug 26 4:30 AM, Nantes, Weather by CustomWeather, © 2016

Note: Actual official high and low records may vary slightly from our data, if they occured in-between our weather recording intervals... More about our weather records

Advertising

Nantes Weather History for the Previous 24 Hours

Scroll right to see more
 ConditionsComfort  
Time TempWeatherWind HumidityBarometerVisibility
4:30 AM
Fri, Aug 26
68 °FPassing clouds.8 mph78%29.95 "HgN/A
4:00 AM68 °FPassing clouds.7 mph78%29.95 "HgN/A
3:30 AM70 °FPassing clouds.7 mph73%29.95 "HgN/A
3:00 AM68 °FClear.5 mph83%29.95 "Hg10 mi
2:30 AM70 °FClear.5 mph78%29.95 "Hg10 mi
2:00 AM70 °FClear.6 mph78%29.95 "Hg10 mi
1:30 AM70 °FClear.6 mph78%29.95 "Hg10 mi
1:00 AM70 °FClear.3 mph73%29.95 "Hg10 mi
12:30 AM72 °FClear.3 mph69%29.95 "Hg10 mi
12:00 AM73 °FClear.No wind65%29.92 "Hg10 mi
11:30 PM
Thu, Aug 25
73 °FClear.2 mph65%29.95 "Hg10 mi
11:00 PM75 °FClear.3 mph65%29.95 "Hg10 mi
10:30 PM75 °FClear.5 mph65%29.92 "Hg10 mi
10:00 PM75 °FClear.2 mph61%29.92 "Hg10 mi
9:30 PM79 °FSunny.3 mph54%29.92 "Hg10 mi
9:00 PM81 °FPassing clouds.3 mph51%29.92 "HgN/A
8:30 PM84 °FPassing clouds.7 mph48%29.89 "HgN/A
8:00 PM86 °FSunny.8 mph46%29.89 "Hg10 mi
7:30 PM88 °FSunny.9 mph40%29.89 "Hg10 mi
7:00 PM91 °FPassing clouds.9 mph36%29.89 "HgN/A
6:30 PM91 °FPassing clouds.9 mph36%29.89 "HgN/A
6:00 PM93 °FPassing clouds.10 mph34%29.89 "HgN/A
5:30 PM95 °FPassing clouds.10 mph32%29.89 "HgN/A
5:00 PM97 °FSunny.9 mph27%29.92 "Hg10 mi
4:30 PM95 °FPassing clouds.8 mph30%29.92 "HgN/A
4:00 PM95 °FPassing clouds.9 mph30%29.92 "HgN/A
3:30 PM95 °FPassing clouds.7 mph32%29.92 "HgN/A
3:00 PM93 °FPassing clouds.8 mph32%29.92 "HgN/A
2:30 PM91 °FPassing clouds.6 mph34%29.95 "HgN/A
2:00 PM90 °FPassing clouds.7 mph36%29.95 "HgN/A
1:30 PM90 °FSunny.3 mph41%29.95 "Hg10 mi
1:00 PM88 °FSunny.3 mph43%29.98 "Hg10 mi
12:30 PM84 °FSunny.3 mph51%29.98 "Hg10 mi
12:00 PM82 °FPassing clouds.6 mph58%29.98 "HgN/A
11:30 AM81 °FPassing clouds.6 mph58%29.98 "HgN/A
11:00 AM81 °FPassing clouds.6 mph62%29.98 "HgN/A
10:30 AM79 °FSunny.No wind61%29.98 "Hg10 mi
10:00 AM75 °FSunny.2 mph65%29.98 "Hg10 mi
9:30 AM73 °FSunny.No wind69%30.01 "Hg10 mi
9:00 AM72 °FSunny.2 mph73%29.98 "Hg10 mi
8:30 AM68 °FSunny.2 mph78%29.98 "Hg10 mi
8:00 AM66 °FMild.3 mph83%29.98 "HgN/A
7:30 AM66 °FClear.No wind83%29.98 "Hg10 mi
7:00 AM66 °FPassing clouds.No wind83%29.98 "HgN/A
6:30 AM66 °FClear.1 mph83%29.95 "Hg10 mi
6:00 AM66 °FMild.2 mph83%29.98 "HgN/A
5:30 AM68 °FMild.3 mph78%29.98 "HgN/A
5:00 AM66 °FMild.3 mph83%29.98 "HgN/A
Weather by CustomWeather, © 2016

See weather overviewHow to use our weather pages